Location: Maccacari
(45.1333°N, 11.1333°E)
Time: 01:13:46
(UTC+00:00)

Tiros 1 despin weight - Pass Details

Date: 23 January 2021
Orbit: 593 x 642 km, 48.2° (Epoch: 07 March)

Event Time Altitude Azimuth Distance (km) Brightness Sun altitude
Rises 20:02:52 0° 287° (WNW) 2,841 ? -40.6°
Enters shadow 20:04:55 - 279° (W) 2,099 ? -41.0°
Reaches altitude 10° 20:05:25 10° 276° (W) 1,930 - -41.1°
Maximum altitude 20:09:07 27° 219° (SW) 1,162 - -41.7°
Drops below altitude 10° 20:12:48 10° 161° (SSE) 1,915 - -42.3°
Sets 20:15:20 0° 149° (SSE) 2,813 - -42.8°
